# Mixing ratio of CO2 (xCO2) in dry air measured onboard R/V Ryofu-maru of the Japan Meteorological Agency.,,,,,,,,,,,,,,,,,,,,,,
"# Version 1.0; 16 April, 2004.",,,,,,,,,,,,,,,,,,,,,,
# Measured by Meteorological Research Institute. ,,,,,,,,,,,,,,,,,,,,,,
# PI : H. Y. Inoue,,,,,,,,,,,,,,,,,,,,,,
# Concetrarion scale = MRI87,,,,,,,,,,,,,,,,,,,,,,
# Date and Time = UTC,,,,,,,,,,,,,,,,,,,,,,
Ship,Cruise,Serial No.,Date,,,Time,,Latitude,Longitude,xCO2_Air,F,xCO2_Sea,F,Wind_Dir,Wind_Spd,Atm_Prs,Atm_Tmp.,SST,F,SSS,F,pH2O
,,,Year,Month,Day,Hour,Min.,Deg.,Deg.,ppm,,ppm,,Deg.,m/s,hPa,deg.C,deg.C,,,,hPa
Ryofu-maru_MRI,Ry8301,1,1983,1,19,6,,33.3,137,346.4,2,284.8,2,-99,-9.9,1014.8,-99.9,17.4,2,-9.999,9,19.49
Ryofu-maru_MRI,Ry8301,2,1983,1,19,7,,33.083,137.017,-99.9,2,288.2,2,-99,-9.9,1015.3,-99.9,16.8,2,-9.999,9,18.76
Ryofu-maru_MRI,Ry8301,3,1983,1,19,8,,32.883,137.033,346.5,2,296.1,2,-99,-9.9,1015.8,-99.9,16.8,2,-9.999,9,18.76
Ryofu-maru_MRI,Ry8301,4,1983,1,19,9,,32.667,137.05,346.4,2,293.8,2,-99,-9.9,1016.3,-99.9,20.1,2,-9.999,9,23.08
Ryofu-maru_MRI,Ry8301,5,1983,1,19,10,,32.633,137.033,347.4,2,293.5,2,-99,-9.9,1016.8,-99.9,20.9,2,-9.999,9,24.25
Ryofu-maru_MRI,Ry8301,6,1983,1,19,11,,32.617,137.017,348.4,4,286.1,2,-99,-9.9,1016.9,-99.9,21,2,-9.999,9,24.39
Ryofu-maru_MRI,Ry8301,7,1983,1,19,12,,32.583,137,346.6,2,286.9,2,-99,-9.9,1017,-99.9,20.9,2,-9.999,9,24.25
Ryofu-maru_MRI,Ry8301,8,1983,1,19,13,,32.45,137.017,346.1,2,-99.9,9,-99,-9.9,1017.1,-99.9,20.9,2,-9.999,9,24.25
Ryofu-maru_MRI,Ry8301,9,1983,1,19,14,,32.3,137.033,346.3,2,-99.9,9,-99,-9.9,1017.2,-99.9,20.6,2,-9.999,9,23.8
Ryofu-maru_MRI,Ry8301,10,1983,1,19,15,,32.167,137.05,346.6,2,-99.9,9,-99,-9.9,1017.2,-99.9,21.2,2,-9.999,9,24.7
Ryofu-maru_MRI,Ry8301,11,1983,1,19,16,,32.1,137.05,345.7,2,-99.9,9,-99,-9.9,1017.3,-99.9,21.2,2,-9.999,9,24.7
Ryofu-maru_MRI,Ry8301,12,1983,1,19,17,,32.033,137.067,346,2,-99.9,9,-99,-9.9,1017.3,-99.9,21.2,2,-9.999,9,24.7
Ryofu-maru_MRI,Ry8301,13,1983,1,19,18,,31.967,137.067,346.3,2,-99.9,9,-99,-9.9,1017.3,-99.9,21.1,2,-9.999,9,24.55
Ryofu-maru_MRI,Ry8301,14,1983,1,19,19,,31.75,137.033,-99.9,2,-99.9,9,-99,-9.9,1017.7,-99.9,20.4,2,-9.999,9,23.51
Ryofu-maru_MRI,Ry8301,15,1983,1,19,20,,31.517,137.017,345.4,2,-99.9,9,-99,-9.9,1018.6,-99.9,20.1,2,-9.999,9,23.08
Ryofu-maru_MRI,Ry8301,16,1983,1,19,21,,31.3,136.983,345.4,2,-99.9,9,-99,-9.9,1019.4,-99.9,20.5,2,-9.999,9,23.65
Ryofu-maru_MRI,Ry8301,17,1983,1,19,22,,31.2,137,345.2,2,-99.9,9,-99,-9.9,1020.3,-99.9,20.4,2,-9.999,9,23.51
Ryofu-maru_MRI,Ry8301,18,1983,1,19,23,,31.083,137.017,-99.9,2,-99.9,9,-99,-9.9,1021,-99.9,20.5,2,-9.999,9,23.65
Ryofu-maru_MRI,Ry8301,19,1983,1,20,0,,30.983,137.033,344.8,4,-99.9,9,-99,-9.9,1021.4,-99.9,20.4,2,-9.999,9,23.51
Ryofu-maru_MRI,Ry8301,20,1983,1,20,1,,30.783,137.017,-99.9,2,-99.9,9,-99,-9.9,1021.8,-99.9,20.5,2,-9.999,9,23.65
Ryofu-maru_MRI,Ry8301,21,1983,1,20,2,,30.6,137.017,-99.9,2,-99.9,9,-99,-9.9,1022.2,-99.9,20.5,2,-9.999,9,23.65
Ryofu-maru_MRI,Ry8301,22,1983,1,20,3,,30.4,137,-99.9,2,-99.9,9,-99,-9.9,1022.6,-99.9,20.3,2,-9.999,9,23.36
Ryofu-maru_MRI,Ry8301,23,1983,1,20,4,,30.267,137,-99.9,2,-99.9,9,-99,-9.9,1022.6,-99.9,20.4,2,-9.999,9,23.51
Ryofu-maru_MRI,Ry8301,24,1983,1,20,5,,30.117,137,-99.9,2,-99.9,9,-99,-9.9,1022.5,-99.9,20.4,2,-9.999,9,23.51
Ryofu-maru_MRI,Ry8301,25,1983,1,20,6,,29.983,137,345,4,-99.9,9,-99,-9.9,1022.5,-99.9,20.3,2,-9.999,9,23.36
Ryofu-maru_MRI,Ry8301,26,1983,1,20,7,,29.983,137,345.8,2,-99.9,9,-99,-9.9,1022.4,-99.9,20.2,2,-9.999,9,23.22
Ryofu-maru_MRI,Ry8301,27,1983,1,20,8,,29.983,137.017,345.8,2,-99.9,9,-99,-9.9,1022.9,-99.9,20.2,2,-9.999,9,23.22
Ryofu-maru_MRI,Ry8301,28,1983,1,20,9,,29.983,137.017,346.1,2,-99.9,9,-99,-9.9,1023.4,-99.9,20.2,2,-9.999,9,23.22
Ryofu-maru_MRI,Ry8301,29,1983,1,20,10,,29.8,137.017,346.1,2,-99.9,9,-99,-9.9,1023.9,-99.9,20.3,2,-9.999,9,23.36
Ryofu-maru_MRI,Ry8301,30,1983,1,20,11,,29.617,137,-99.9,2,-99.9,9,-99,-9.9,1024.3,-99.9,20.3,2,-9.999,9,23.36
Ryofu-maru_MRI,Ry8301,31,1983,1,20,12,,29.433,137,-99.9,2,-99.9,9,-99,-9.9,1024.4,-99.9,20.4,2,-9.999,9,23.51
Ryofu-maru_MRI,Ry8301,32,1983,1,20,13,,29.283,137,344.7,4,-99.9,9,-99,-9.9,1024.4,-99.9,20.6,2,-9.999,9,23.8
Ryofu-maru_MRI,Ry8301,33,1983,1,20,14,,29.133,137,345.6,2,-99.9,9,-99,-9.9,1024.3,-99.9,20.9,2,-9.999,9,24.25
Ryofu-maru_MRI,Ry8301,34,1983,1,20,15,,28.983,137,344.9,4,-99.9,9,-99,-9.9,1024.3,-99.9,21.4,2,-9.999,9,25
Ryofu-maru_MRI,Ry8301,35,1983,1,20,16,,28.85,137,345.4,2,-99.9,9,-99,-9.9,1024.2,-99.9,21.3,2,-9.999,9,24.85
Ryofu-maru_MRI,Ry8301,36,1983,1,20,17,,28.733,137,345,2,-99.9,9,-99,-9.9,1024.1,-99.9,21,2,-9.999,9,24.39
Ryofu-maru_MRI,Ry8301,37,1983,1,20,18,,28.6,137,345.6,2,-99.9,9,-99,-9.9,1024,-99.9,21.4,2,-9.999,9,25
Ryofu-maru_MRI,Ry8301,38,1983,1,20,19,,28.4,137,345.5,2,-99.9,9,-99,-9.9,1023.8,-99.9,21.1,2,-9.999,9,24.55
Ryofu-maru_MRI,Ry8301,39,1983,1,20,20,,28.217,137,345.3,2,-99.9,9,-99,-9.9,1023.9,-99.9,21.5,2,-9.999,9,25.15
Ryofu-maru_MRI,Ry8301,40,1983,1,20,21,,28.017,137,345.2,2,-99.9,9,-99,-9.9,1024.1,-99.9,22,2,-9.999,9,25.94
Ryofu-maru_MRI,Ry8301,41,1983,1,20,22,,27.933,137,344.9,4,284.2,2,-99,-9.9,1024.4,-99.9,22,2,-9.999,9,25.94
Ryofu-maru_MRI,Ry8301,42,1983,1,20,23,,27.833,136.983,344.9,4,282.4,2,-99,-9.9,1024.7,-99.9,21.9,2,-9.999,9,25.78
Ryofu-maru_MRI,Ry8301,43,1983,1,21,0,,27.75,136.983,347,4,281.4,2,-99,-9.9,1024.8,-99.9,21.3,2,-9.999,9,24.85
Ryofu-maru_MRI,Ry8301,44,1983,1,21,1,,27.533,136.983,345.9,2,283.1,2,-99,-9.9,1024.3,-99.9,21.3,2,-9.999,9,24.85
Ryofu-maru_MRI,Ry8301,45,1983,1,21,2,,27.333,137,344.9,2,284.1,2,-99,-9.9,1023.8,-99.9,22,2,-9.999,9,25.94
Ryofu-maru_MRI,Ry8301,46,1983,1,21,3,,27.117,137,345.3,2,286.1,2,-99,-9.9,1023.3,-99.9,22.5,2,-9.999,9,26.74
Ryofu-maru_MRI,Ry8301,47,1983,1,21,4,,27.017,137,345.3,2,283.5,2,-99,-9.9,1022.7,-99.9,22.5,2,-9.999,9,26.74
Ryofu-maru_MRI,Ry8301,48,1983,1,21,5,,26.933,137,344.9,2,278.5,2,-99,-9.9,1022.6,-99.9,22.4,2,-9.999,9,26.57
Ryofu-maru_MRI,Ry8301,49,1983,1,21,6,,26.833,137,344.1,4,-99.9,9,-99,-9.9,1022.5,-99.9,22,2,-9.999,9,25.94
Ryofu-maru_MRI,Ry8301,50,1983,1,21,7,,26.6,136.983,345.1,2,285.9,2,-99,-9.9,1022.3,-99.9,22,2,-9.999,9,25.94
Ryofu-maru_MRI,Ry8301,51,1983,1,21,8,,26.383,136.983,344.7,2,286.9,2,-99,-9.9,1022.2,-99.9,22.1,2,-9.999,9,26.09
Ryofu-maru_MRI,Ry8301,52,1983,1,21,9,,26.15,136.967,344.8,2,286.9,2,-99,-9.9,1022.4,-99.9,22.1,2,-9.999,9,26.09
Ryofu-maru_MRI,Ry8301,53,1983,1,21,10,,26.033,136.983,344.9,2,284.7,2,-99,-9.9,1022.6,-99.9,21.6,2,-9.999,9,25.31
Ryofu-maru_MRI,Ry8301,54,1983,1,21,11,,25.917,137,345.3,2,281.9,2,-99,-9.9,1022.8,-99.9,21.5,2,-9.999,9,25.15
Ryofu-maru_MRI,Ry8301,55,1983,1,21,12,,25.8,137.017,345.9,4,286.4,2,-99,-9.9,1023,-99.9,21.7,2,-9.999,9,25.46
Ryofu-maru_MRI,Ry8301,56,1983,1,21,13,,25.583,137.017,345,2,284,2,-99,-9.9,1022.8,-99.9,21.8,2,-9.999,9,25.62
Ryofu-maru_MRI,Ry8301,57,1983,1,21,14,,25.367,137,344.5,2,287.9,2,-99,-9.9,1022.3,-99.9,22.5,2,-9.999,9,26.74
Ryofu-maru_MRI,Ry8301,58,1983,1,21,15,,25.15,137,344.4,2,288.5,2,-99,-9.9,1021.9,-99.9,22.5,2,-9.999,9,26.74
Ryofu-maru_MRI,Ry8301,59,1983,1,21,16,,25.1,137,344.8,2,286.9,2,-99,-9.9,1021.5,-99.9,22.4,2,-9.999,9,26.57
Ryofu-maru_MRI,Ry8301,60,1983,1,21,17,,25.05,137,344.7,2,284.9,2,-99,-9.9,1021.1,-99.9,22.3,2,-9.999,9,26.41
Ryofu-maru_MRI,Ry8301,61,1983,1,21,18,,25,137,344.6,2,284.6,2,-99,-9.9,1021,-99.9,22.3,2,-9.999,9,26.41
Ryofu-maru_MRI,Ry8301,62,1983,1,21,19,,24.85,137,344.3,2,283.8,2,-99,-9.9,1020.8,-99.9,22.2,2,-9.999,9,26.25
Ryofu-maru_MRI,Ry8301,63,1983,1,21,20,,24.683,137,344.7,2,283.6,2,-99,-9.9,1020.6,-99.9,22,2,-9.999,9,25.94
Ryofu-maru_MRI,Ry8301,64,1983,1,21,21,,24.533,137,344.5,2,286.9,2,-99,-9.9,1020.5,-99.9,22.1,2,-9.999,9,26.09
Ryofu-maru_MRI,Ry8301,65,1983,1,21,22,,24.35,137,345.6,4,291.2,2,-99,-9.9,1020.7,-99.9,22.6,2,-9.999,9,26.9
Ryofu-maru_MRI,Ry8301,66,1983,1,21,23,,24.183,137,344.4,2,293.7,2,-99,-9.9,1021,-99.9,22,2,-9.999,9,25.94
Ryofu-maru_MRI,Ry8301,67,1983,1,22,0,,24,137,343.9,4,293.7,2,-99,-9.9,1021.2,-99.9,22.1,2,-9.999,9,26.09
Ryofu-maru_MRI,Ry8301,68,1983,1,22,1,,23.833,137,344.2,2,293.7,2,-99,-9.9,1021.3,-99.9,22.1,2,-9.999,9,26.09
Ryofu-maru_MRI,Ry8301,69,1983,1,22,2,,23.683,137.017,344.7,2,293.7,2,-99,-9.9,1020.8,-99.9,22.3,2,-9.999,9,26.41
Ryofu-maru_MRI,Ry8301,70,1983,1,22,3,,23.517,137.017,344.3,2,293.9,2,-99,-9.9,1020.3,-99.9,22.5,2,-9.999,9,26.74
Ryofu-maru_MRI,Ry8301,71,1983,1,22,4,,23.35,137.017,344.4,2,295.8,2,-99,-9.9,1019.8,-99.9,22.5,2,-9.999,9,26.74
Ryofu-maru_MRI,Ry8301,72,1983,1,22,5,,23.167,137,344.1,2,297.2,2,-99,-9.9,1019.3,-99.9,22.5,2,-9.999,9,26.74
Ryofu-maru_MRI,Ry8301,73,1983,1,22,6,,23,137,345,2,297.4,2,-99,-9.9,1019.4,-99.9,23.1,2,-9.999,9,27.73
Ryofu-maru_MRI,Ry8301,74,1983,1,22,7,,22.867,137,343.9,2,291.2,2,-99,-9.9,1019.6,-99.9,23.4,2,-9.999,9,28.23
Ryofu-maru_MRI,Ry8301,75,1983,1,22,8,,22.75,137,345.1,4,289.9,2,-99,-9.9,1019.8,-99.9,22.5,2,-9.999,9,26.74
Ryofu-maru_MRI,Ry8301,76,1983,1,22,9,,22.617,137,344.8,2,292.8,2,-99,-9.9,1020,-99.9,23.8,2,-9.999,9,28.92
Ryofu-maru_MRI,Ry8301,77,1983,1,22,10,,22.417,137,344.6,2,292.8,2,-99,-9.9,1020.2,-99.9,24,2,-9.999,9,29.27
Ryofu-maru_MRI,Ry8301,78,1983,1,22,11,,22.2,137,344.4,2,291.6,2,-99,-9.9,1020.3,-99.9,24.3,2,-9.999,9,29.8
Ryofu-maru_MRI,Ry8301,79,1983,1,22,12,,22,137,344.3,2,296.1,2,-99,-9.9,1020.4,-99.9,25.1,2,-9.999,9,31.26
Ryofu-maru_MRI,Ry8301,80,1983,1,22,13,,21.883,137,344.2,2,292.8,2,-99,-9.9,1020.6,-99.9,25.2,2,-9.999,9,31.45
Ryofu-maru_MRI,Ry8301,81,1983,1,22,14,,21.75,137,343.7,2,304.6,2,-99,-9.9,1020.5,-99.9,25.2,2,-9.999,9,31.45
Ryofu-maru_MRI,Ry8301,82,1983,1,22,15,,21.633,137,344.6,2,305.3,2,-99,-9.9,1020.1,-99.9,25.2,2,-9.999,9,31.45
Ryofu-maru_MRI,Ry8301,83,1983,1,22,16,,21.417,137,344.5,2,308.1,2,-99,-9.9,1019.8,-99.9,25.5,2,-9.999,9,32.02
Ryofu-maru_MRI,Ry8301,84,1983,1,22,17,,21.217,137,344.5,2,310.8,2,-99,-9.9,1019.5,-99.9,25.8,2,-9.999,9,32.59
Ryofu-maru_MRI,Ry8301,85,1983,1,22,18,,21,137,344.3,2,312.7,2,-99,-9.9,1019.2,-99.9,25.8,2,-9.999,9,32.59
Ryofu-maru_MRI,Ry8301,86,1983,1,22,19,,20.9,137,343.9,2,311,2,-99,-9.9,1019.1,-99.9,25.8,2,-9.999,9,32.59
Ryofu-maru_MRI,Ry8301,87,1983,1,22,20,,20.817,137,343.8,2,311.1,2,-99,-9.9,1018.9,-99.9,25.8,2,-9.999,9,32.59
Ryofu-maru_MRI,Ry8301,88,1983,1,22,21,,20.717,137,344.6,4,311.6,2,-99,-9.9,1018.7,-99.9,25.9,2,-9.999,9,32.79
Ryofu-maru_MRI,Ry8301,89,1983,1,22,22,,20.517,137,343.8,2,311.2,2,-99,-9.9,1018.5,-99.9,25.9,2,-9.999,9,32.79
Ryofu-maru_MRI,Ry8301,90,1983,1,22,23,,20.3,137,344.4,2,312.7,2,-99,-9.9,1018.5,-99.9,25.8,2,-9.999,9,32.59
Ryofu-maru_MRI,Ry8301,91,1983,1,23,0,,20.1,137,344.2,2,312.5,2,-99,-9.9,1018.4,-99.9,25.8,2,-9.999,9,32.59
Ryofu-maru_MRI,Ry8301,92,1983,1,23,1,,20.067,137,343.5,2,312.3,2,-99,-9.9,1018.4,-99.9,25.8,2,-9.999,9,32.59
Ryofu-maru_MRI,Ry8301,93,1983,1,23,2,,20.033,137,344.2,2,311.3,2,-99,-9.9,1018.3,-99.9,25.8,2,-9.999,9,32.59
Ryofu-maru_MRI,Ry8301,94,1983,1,23,3,,20,137,-99.9,2,305.8,2,-99,-9.9,1017.6,-99.9,26.4,2,-9.999,9,33.77
Ryofu-maru_MRI,Ry8301,95,1983,1,23,4,,19.833,137,345.4,4,309,2,-99,-9.9,1016.8,-99.9,26.4,2,-9.999,9,33.77
Ryofu-maru_MRI,Ry8301,96,1983,1,23,5,,19.683,137,344.3,4,322.5,2,-99,-9.9,1016.1,-99.9,26.3,2,-9.999,9,33.57
Ryofu-maru_MRI,Ry8301,97,1983,1,23,6,,19.517,137,344.8,4,325,2,-99,-9.9,1015.4,-99.9,26.4,2,-9.999,9,33.77
Ryofu-maru_MRI,Ry8301,98,1983,1,23,7,,19.35,137,343.8,2,321.9,2,-99,-9.9,1015.3,-99.9,26.4,2,-9.999,9,33.77
Ryofu-maru_MRI,Ry8301,99,1983,1,23,8,,19.167,137,343.8,2,322.6,2,-99,-9.9,1015.3,-99.9,26.4,2,-9.999,9,33.77
Ryofu-maru_MRI,Ry8301,100,1983,1,23,9,,19,137,342.9,4,323,2,-99,-9.9,1015.4,-99.9,26.4,2,-9.999,9,33.77
Ryofu-maru_MRI,Ry8301,101,1983,1,23,10,,18.883,137,-99.9,2,-99.9,9,-99,-9.9,1015.4,-99.9,26.4,2,-9.999,9,33.77
Ryofu-maru_MRI,Ry8301,102,1983,1,23,11,,18.783,136.983,343.8,2,319,2,-99,-9.9,1015.3,-99.9,26.4,2,-9.999,9,33.77
Ryofu-maru_MRI,Ry8301,103,1983,1,23,12,,18.667,136.983,343.4,2,324.2,2,-99,-9.9,1015,-99.9,26.5,2,-9.999,9,33.97
Ryofu-maru_MRI,Ry8301,104,1983,1,23,13,,18.467,136.983,343.1,2,320,2,-99,-9.9,1014.8,-99.9,26.4,2,-9.999,9,33.77
Ryofu-maru_MRI,Ry8301,105,1983,1,23,14,,18.267,137,342.9,2,320.3,2,-99,-9.9,1014.5,-99.9,26.4,2,-9.999,9,33.77
Ryofu-maru_MRI,Ry8301,106,1983,1,23,15,,18.067,137,342.4,4,317,2,-99,-9.9,1014.1,-99.9,26.4,2,-9.999,9,33.77
Ryofu-maru_MRI,Ry8301,107,1983,1,23,16,,18.05,137,341.9,4,318.2,2,-99,-9.9,1013.6,-99.9,26.5,2,-9.999,9,33.97
Ryofu-maru_MRI,Ry8301,108,1983,1,23,17,,18.017,137,342.3,4,316.7,2,-99,-9.9,1013,-99.9,26.5,2,-9.999,9,33.97
Ryofu-maru_MRI,Ry8301,109,1983,1,23,18,,18,137,342.3,2,314.7,2,-99,-9.9,1012.5,-99.9,26.5,2,-9.999,9,33.97
Ryofu-maru_MRI,Ry8301,110,1983,1,23,19,,17.833,137,342.1,4,312.5,2,-99,-9.9,1012.2,-99.9,26.5,2,-9.999,9,33.97
Ryofu-maru_MRI,Ry8301,111,1983,1,23,20,,17.667,137.017,341.9,4,315.1,2,-99,-9.9,1012.6,-99.9,26.4,2,-9.999,9,33.77
Ryofu-maru_MRI,Ry8301,112,1983,1,23,21,,17.5,137.017,342.4,2,314.9,2,-99,-9.9,1013.1,-99.9,26.4,2,-9.999,9,33.77
Ryofu-maru_MRI,Ry8301,113,1983,1,23,22,,17.333,137,342.4,2,312.5,2,-99,-9.9,1013.5,-99.9,26.4,2,-9.999,9,33.77
Ryofu-maru_MRI,Ry8301,114,1983,1,23,23,,17.167,137,342,4,311.3,2,-99,-9.9,1013.9,-99.9,26.4,2,-9.999,9,33.77
Ryofu-maru_MRI,Ry8301,115,1983,1,24,0,,17,136.983,341.5,4,312.3,2,-99,-9.9,1013.7,-99.9,26.5,2,-9.999,9,33.97
Ryofu-maru_MRI,Ry8301,116,1983,1,24,1,,16.85,136.983,342.4,2,309.9,2,-99,-9.9,1013.5,-99.9,26.6,2,-9.999,9,34.17
Ryofu-maru_MRI,Ry8301,117,1983,1,24,2,,16.683,137,342.8,2,311.6,2,-99,-9.9,1013.4,-99.9,26.8,2,-9.999,9,34.57
Ryofu-maru_MRI,Ry8301,118,1983,1,24,3,,16.533,137,343,2,314.7,2,-99,-9.9,1013.2,-99.9,26.8,2,-9.999,9,34.57
Ryofu-maru_MRI,Ry8301,119,1983,1,24,4,,16.367,137,343,2,313.4,2,-99,-9.9,1013.1,-99.9,26.8,2,-9.999,9,34.57
Ryofu-maru_MRI,Ry8301,120,1983,1,24,5,,16.183,137,342.8,2,308.7,2,-99,-9.9,1013.1,-99.9,26.8,2,-9.999,9,34.57
Ryofu-maru_MRI,Ry8301,121,1983,1,24,6,,16.017,137,342.7,2,308.2,2,-99,-9.9,1013,-99.9,26.9,2,-9.999,9,34.78
Ryofu-maru_MRI,Ry8301,122,1983,1,24,7,,15.9,137,342.2,2,305.3,2,-99,-9.9,1013,-99.9,26.8,2,-9.999,9,34.57
Ryofu-maru_MRI,Ry8301,123,1983,1,24,8,,15.783,137,342.7,2,303.4,2,-99,-9.9,1013.4,-99.9,26.8,2,-9.999,9,34.57
Ryofu-maru_MRI,Ry8301,124,1983,1,24,9,,15.667,137,341.8,4,304.2,2,-99,-9.9,1014,-99.9,26.8,2,-9.999,9,34.57
Ryofu-maru_MRI,Ry8301,125,1983,1,24,10,,15.45,137,342.4,2,315.9,2,-99,-9.9,1014.6,-99.9,26.8,2,-9.999,9,34.57
Ryofu-maru_MRI,Ry8301,126,1983,1,24,11,,15.25,137,341.9,2,315.9,2,-99,-9.9,1015.2,-99.9,26.7,2,-9.999,9,34.37
Ryofu-maru_MRI,Ry8301,127,1983,1,24,12,,15.033,137,342.6,2,316.5,2,-99,-9.9,1015.4,-99.9,26.7,2,-9.999,9,34.37
Ryofu-maru_MRI,Ry8301,128,1983,1,24,13,,15.017,137,341.7,4,312.4,2,-99,-9.9,1015.2,-99.9,26.7,2,-9.999,9,34.37
Ryofu-maru_MRI,Ry8301,129,1983,1,24,14,,15,136.983,341.8,2,310.1,2,-99,-9.9,1015,-99.9,26.7,2,-9.999,9,34.37
Ryofu-maru_MRI,Ry8301,130,1983,1,24,15,,14.983,136.983,342.6,2,311,2,-99,-9.9,1014.8,-99.9,26.7,2,-9.999,9,34.37
Ryofu-maru_MRI,Ry8301,131,1983,1,24,16,,14.933,136.983,341.4,4,311,2,-99,-9.9,1014.6,-99.9,26.7,2,-9.999,9,34.37
Ryofu-maru_MRI,Ry8301,132,1983,1,24,17,,14.883,137,342.1,2,307.6,2,-99,-9.9,1014.4,-99.9,26.7,2,-9.999,9,34.37
Ryofu-maru_MRI,Ry8301,133,1983,1,24,18,,14.833,137,340.9,4,310.5,2,-99,-9.9,1014.3,-99.9,26.6,2,-9.999,9,34.17
Ryofu-maru_MRI,Ry8301,134,1983,1,24,19,,14.617,137,342,2,313,2,-99,-9.9,1014.1,-99.9,26.6,2,-9.999,9,34.17
Ryofu-maru_MRI,Ry8301,135,1983,1,24,20,,14.383,137,342.2,2,311.3,2,-99,-9.9,1014,-99.9,26.6,2,-9.999,9,34.17
Ryofu-maru_MRI,Ry8301,136,1983,1,24,21,,14.167,137,342.1,2,313.9,2,-99,-9.9,1014.4,-99.9,26.5,2,-9.999,9,33.97
Ryofu-maru_MRI,Ry8301,137,1983,1,24,22,,14,136.983,342.1,2,314.6,2,-99,-9.9,1014.8,-99.9,26.5,2,-9.999,9,33.97
Ryofu-maru_MRI,Ry8301,138,1983,1,24,23,,13.833,136.967,341.8,2,314.2,2,-99,-9.9,1015.2,-99.9,26.5,2,-9.999,9,33.97
Ryofu-maru_MRI,Ry8301,139,1983,1,25,0,,13.667,136.95,341.6,2,314.7,2,-99,-9.9,1015.6,-99.9,26.6,2,-9.999,9,34.17
Ryofu-maru_MRI,Ry8301,140,1983,1,25,1,,13.5,136.967,342.4,2,319,2,-99,-9.9,1015.2,-99.9,26.8,2,-9.999,9,34.57
Ryofu-maru_MRI,Ry8301,141,1983,1,25,2,,13.333,136.983,342.3,2,326.5,2,-99,-9.9,1014.7,-99.9,26.9,2,-9.999,9,34.78
Ryofu-maru_MRI,Ry8301,142,1983,1,25,3,,13.167,137,342.6,2,330.6,2,-99,-9.9,1014.3,-99.9,27.1,2,-9.999,9,35.19
Ryofu-maru_MRI,Ry8301,143,1983,1,25,4,,13.033,137,342.4,2,328.3,2,-99,-9.9,1013.9,-99.9,27.2,2,-9.999,9,35.4
Ryofu-maru_MRI,Ry8301,144,1983,1,25,5,,12.917,137,342.3,2,325.4,2,-99,-9.9,1013.9,-99.9,27,2,-9.999,9,34.98
Ryofu-maru_MRI,Ry8301,145,1983,1,25,6,,12.783,137,342,2,324.6,2,-99,-9.9,1014,-99.9,27.5,2,-9.999,9,36.02
Ryofu-maru_MRI,Ry8301,146,1983,1,25,7,,12.567,137,342.2,2,329.7,2,-99,-9.9,1014.1,-99.9,27.2,2,-9.999,9,35.4
Ryofu-maru_MRI,Ry8301,147,1983,1,25,8,,12.367,137,341.7,2,329.7,2,-99,-9.9,1014.2,-99.9,26.9,2,-9.999,9,34.78
Ryofu-maru_MRI,Ry8301,148,1983,1,25,9,,12.15,137,341.6,2,324.2,2,-99,-9.9,1014.4,-99.9,26.9,2,-9.999,9,34.78
Ryofu-maru_MRI,Ry8301,149,1983,1,25,10,,12.067,137,341.7,2,319.8,2,-99,-9.9,1014.8,-99.9,27,2,-9.999,9,34.98
Ryofu-maru_MRI,Ry8301,150,1983,1,25,11,,12,137,341.1,4,310.5,2,-99,-9.9,1015.1,-99.9,26.9,2,-9.999,9,34.78
Ryofu-maru_MRI,Ry8301,151,1983,1,25,12,,11.917,137,341.6,2,308.9,2,-99,-9.9,1015.4,-99.9,26.8,2,-9.999,9,34.57
Ryofu-maru_MRI,Ry8301,152,1983,1,25,13,,11.7,137,341.8,2,306.5,2,-99,-9.9,1015.5,-99.9,27,2,-9.999,9,34.98
Ryofu-maru_MRI,Ry8301,153,1983,1,25,14,,11.5,137,341.7,2,305.4,2,-99,-9.9,1015.1,-99.9,27,2,-9.999,9,34.98
Ryofu-maru_MRI,Ry8301,154,1983,1,25,15,,11.283,137,341.9,2,305.9,2,-99,-9.9,1014.7,-99.9,26.9,2,-9.999,9,34.78
Ryofu-maru_MRI,Ry8301,155,1983,1,25,16,,11.167,137,342.1,2,304.2,2,-99,-9.9,1014.3,-99.9,26.9,2,-9.999,9,34.78
Ryofu-maru_MRI,Ry8301,156,1983,1,25,17,,11.05,137,341.9,2,313.5,2,-99,-9.9,1014,-99.9,26.9,2,-9.999,9,34.78
Ryofu-maru_MRI,Ry8301,157,1983,1,25,18,,10.933,137,341.5,2,316.9,2,-99,-9.9,1014,-99.9,26.9,2,-9.999,9,34.78
Ryofu-maru_MRI,Ry8301,158,1983,1,25,19,,10.7,137,341.1,4,319,2,-99,-9.9,1014,-99.9,26.9,2,-9.999,9,34.78
Ryofu-maru_MRI,Ry8301,159,1983,1,25,20,,10.467,136.983,342.4,2,317.8,2,-99,-9.9,1014,-99.9,26.8,2,-9.999,9,34.57
Ryofu-maru_MRI,Ry8301,160,1983,1,25,21,,10.233,136.983,342.7,4,319.6,2,-99,-9.9,1014.1,-99.9,26.9,2,-9.999,9,34.78
Ryofu-maru_MRI,Ry8301,161,1983,1,25,22,,10.15,136.983,341.8,2,-99.9,9,-99,-9.9,1014.5,-99.9,26.8,2,-9.999,9,34.57
Ryofu-maru_MRI,Ry8301,162,1983,1,25,23,,10.083,137,342.6,4,302.6,2,-99,-9.9,1014.9,-99.9,27,2,-9.999,9,34.98
Ryofu-maru_MRI,Ry8301,163,1983,1,26,0,,10,137,341.6,2,310,2,-99,-9.9,1015.2,-99.9,27,2,-9.999,9,34.98
Ryofu-maru_MRI,Ry8301,164,1983,1,26,1,,9.85,136.983,341.6,2,-99.9,9,-99,-9.9,1015.6,-99.9,27,2,-9.999,9,34.98
Ryofu-maru_MRI,Ry8301,165,1983,1,26,2,,9.683,136.983,342.7,4,333,2,-99,-9.9,1015.2,-99.9,27.1,2,-9.999,9,35.19
Ryofu-maru_MRI,Ry8301,166,1983,1,26,3,,9.533,136.967,343.1,4,336.1,2,-99,-9.9,1014.7,-99.9,27.1,2,-9.999,9,35.19
Ryofu-maru_MRI,Ry8301,167,1983,1,26,4,,9.35,136.983,342.7,4,334.7,2,-99,-9.9,1014.2,-99.9,27.5,2,-9.999,9,36.02
Ryofu-maru_MRI,Ry8301,168,1983,1,26,5,,9.183,136.983,341.9,2,335.6,2,-99,-9.9,1013.7,-99.9,27.5,2,-9.999,9,36.02
Ryofu-maru_MRI,Ry8301,169,1983,1,26,6,,9,137,341.8,2,334.5,2,-99,-9.9,1013.7,-99.9,27.6,2,-9.999,9,36.23
Ryofu-maru_MRI,Ry8301,170,1983,1,26,7,,8.9,137,342.4,2,332,2,-99,-9.9,1013.9,-99.9,27.6,2,-9.999,9,36.23
Ryofu-maru_MRI,Ry8301,171,1983,1,26,8,,8.783,137,342.5,2,329.9,2,-99,-9.9,1014.1,-99.9,27.6,2,-9.999,9,36.23
Ryofu-maru_MRI,Ry8301,172,1983,1,26,9,,8.683,137,342.7,4,332.7,2,-99,-9.9,1014.2,-99.9,27.6,2,-9.999,9,36.23
Ryofu-maru_MRI,Ry8301,173,1983,1,26,10,,8.467,137,341.8,2,333.1,2,-99,-9.9,1014.6,-99.9,27.5,2,-9.999,9,36.02
Ryofu-maru_MRI,Ry8301,174,1983,1,26,11,,8.267,137,342.2,2,333.5,2,-99,-9.9,1015,-99.9,27.5,2,-9.999,9,36.02
Ryofu-maru_MRI,Ry8301,175,1983,1,26,12,,8.05,137,342,2,341.6,2,-99,-9.9,1015.4,-99.9,27.4,2,-9.999,9,35.81
Ryofu-maru_MRI,Ry8301,176,1983,1,26,13,,8.083,136.967,342.1,2,337.9,2,-99,-9.9,1015.9,-99.9,27.6,2,-9.999,9,36.23
Ryofu-maru_MRI,Ry8301,177,1983,1,26,14,,8.133,136.933,341.8,2,335.7,2,-99,-9.9,1015.9,-99.9,27.6,2,-9.999,9,36.23
Ryofu-maru_MRI,Ry8301,178,1983,1,26,15,,8.167,136.9,342.3,2,333.6,2,-99,-9.9,1015.4,-99.9,27.6,2,-9.999,9,36.23
Ryofu-maru_MRI,Ry8301,179,1983,1,26,16,,7.967,136.933,341.7,2,333.3,2,-99,-9.9,1014.8,-99.9,27.5,2,-9.999,9,36.02
Ryofu-maru_MRI,Ry8301,180,1983,1,26,17,,7.783,136.967,342,2,336.4,2,-99,-9.9,1014.3,-99.9,27.6,2,-9.999,9,36.23
Ryofu-maru_MRI,Ry8301,181,1983,1,26,18,,7.583,137,341.9,2,336.4,2,-99,-9.9,1013.9,-99.9,27.6,2,-9.999,9,36.23
Ryofu-maru_MRI,Ry8301,182,1983,1,26,19,,7.483,136.983,341.6,2,342,2,-99,-9.9,1014.3,-99.9,27.5,2,-9.999,9,36.02
Ryofu-maru_MRI,Ry8301,183,1983,1,26,20,,7.367,136.95,342,2,340.5,2,-99,-9.9,1014.7,-99.9,27.5,2,-9.999,9,36.02
Ryofu-maru_MRI,Ry8301,184,1983,1,26,21,,7.267,136.933,341.6,2,341.6,2,-99,-9.9,1015.1,-99.9,27.7,2,-9.999,9,36.45
Ryofu-maru_MRI,Ry8301,185,1983,1,26,22,,7.183,136.95,342.1,2,345.8,2,-99,-9.9,1015.5,-99.9,27.6,2,-9.999,9,36.23
Ryofu-maru_MRI,Ry8301,186,1983,1,26,23,,7.083,136.983,341.8,2,346,2,-99,-9.9,1015.8,-99.9,27.7,2,-9.999,9,36.45
Ryofu-maru_MRI,Ry8301,187,1983,1,27,0,,7,137,342,2,346.2,2,-99,-9.9,1016.1,-99.9,27.7,2,-9.999,9,36.45
Ryofu-maru_MRI,Ry8301,188,1983,1,27,1,,6.883,137,342.3,2,342.5,2,-99,-9.9,1016.4,-99.9,27.7,2,-9.999,9,36.45
Ryofu-maru_MRI,Ry8301,189,1983,1,27,2,,6.767,137,342,2,345.4,2,-99,-9.9,1016.7,-99.9,27.5,2,-9.999,9,36.02
Ryofu-maru_MRI,Ry8301,190,1983,1,27,3,,6.65,137,342.3,2,352.1,2,-99,-9.9,1016.2,-99.9,27.8,2,-9.999,9,36.66
Ryofu-maru_MRI,Ry8301,191,1983,1,27,4,,6.533,137,342.7,4,348.2,2,-99,-9.9,1015.7,-99.9,27.9,2,-9.999,9,36.87
Ryofu-maru_MRI,Ry8301,192,1983,1,27,5,,6.4,137,342.6,4,346.4,2,-99,-9.9,1015.1,-99.9,27.8,2,-9.999,9,36.66
Ryofu-maru_MRI,Ry8301,193,1983,1,27,6,,6.283,137,342.4,2,351.1,2,-99,-9.9,1014.5,-99.9,28,2,-9.999,9,37.09
Ryofu-maru_MRI,Ry8301,194,1983,1,27,7,,6.2,137.017,340.9,4,353.5,2,-99,-9.9,1014.4,-99.9,27.9,2,-9.999,9,36.87
Ryofu-maru_MRI,Ry8301,195,1983,1,27,8,,6.1,137.017,342.4,4,363.8,2,-99,-9.9,1014.7,-99.9,27.7,2,-9.999,9,36.45
Ryofu-maru_MRI,Ry8301,196,1983,1,27,9,,6.017,137.033,-99.9,2,364.9,2,-99,-9.9,1015,-99.9,27.7,2,-9.999,9,36.45
Ryofu-maru_MRI,Ry8301,197,1983,1,27,10,,5.95,137.033,-99.9,2,362.9,2,-99,-9.9,1015.2,-99.9,27.6,2,-9.999,9,36.23
Ryofu-maru_MRI,Ry8301,198,1983,1,27,11,,5.883,137.033,-99.9,2,360.6,2,-99,-9.9,1015.4,-99.9,27.5,2,-9.999,9,36.02
Ryofu-maru_MRI,Ry8301,199,1983,1,27,12,,5.817,137.033,341.8,2,365,2,-99,-9.9,1015.5,-99.9,27.7,2,-9.999,9,36.45
Ryofu-maru_MRI,Ry8301,200,1983,1,27,13,,5.7,137.05,341.7,2,365.6,2,-99,-9.9,1015.7,-99.9,27.8,2,-9.999,9,36.66
Ryofu-maru_MRI,Ry8301,201,1983,1,27,14,,5.583,137.05,342,2,364.8,2,-99,-9.9,1015.8,-99.9,27.8,2,-9.999,9,36.66
Ryofu-maru_MRI,Ry8301,202,1983,1,27,15,,5.467,137.067,342.5,2,362.9,2,-99,-9.9,1015.8,-99.9,27.8,2,-9.999,9,36.66
Ryofu-maru_MRI,Ry8301,203,1983,1,27,16,,5.317,137.05,342.3,2,363.5,2,-99,-9.9,1015.3,-99.9,27.9,2,-9.999,9,36.87
Ryofu-maru_MRI,Ry8301,204,1983,1,27,17,,5.15,137.017,342.4,2,363.3,2,-99,-9.9,1014.9,-99.9,27.9,2,-9.999,9,36.87
Ryofu-maru_MRI,Ry8301,205,1983,1,27,18,,5,137,341.8,2,363.2,2,-99,-9.9,1014.4,-99.9,27.8,2,-9.999,9,36.66
Ryofu-maru_MRI,Ry8301,206,1983,1,27,19,,5,137,341.6,2,360.6,2,-99,-9.9,1014,-99.9,27.8,2,-9.999,9,36.66
Ryofu-maru_MRI,Ry8301,207,1983,1,27,20,,5.017,137,342.1,2,359,2,-99,-9.9,1014.5,-99.9,27.8,2,-9.999,9,36.66
Ryofu-maru_MRI,Ry8301,208,1983,1,27,21,,5.017,137,341.7,2,357.5,2,-99,-9.9,1015,-99.9,27.8,2,-9.999,9,36.66
Ryofu-maru_MRI,Ry8301,209,1983,1,27,22,,4.95,137,341.2,4,358.4,2,-99,-9.9,1015.4,-99.9,27.8,2,-9.999,9,36.66
Ryofu-maru_MRI,Ry8301,210,1983,1,27,23,,4.867,137,341.1,4,356.5,2,-99,-9.9,1015.9,-99.9,27.8,2,-9.999,9,36.66
Ryofu-maru_MRI,Ry8301,211,1983,1,28,0,,4.8,137,341.7,2,360,2,-99,-9.9,1015.6,-99.9,27.8,2,-9.999,9,36.66